CW9181 Weather Reports


time (UTC)temp
C
wind
direction
speed
KPH
gust
KPH
rain 1hr
cm
rain 24hr
cm
rain mn
cm
humidity
%
barometer
mb
20260904102014 16 174 1.6 6.4 0.00 0.08 0.08 90 1011.5
20260904101014 16 169 3.2 9.7 0.00 0.08 0.08 90 1011.6
20260904100016 16 199 3.2 9.7 0.00 0.08 0.08 90 1011.6
20260904095041 16 158 3.2 8.0 0.00 0.08 0.08 90 1011.6
20260904094040 17 186 3.2 8.0 0.00 0.08 0.08 90 1011.6
20260904093006 17 240 1.6 8.0 0.00 0.08 0.08 90 1011.6
20260904092011 17 189 1.6 6.4 0.00 0.08 0.08 90 1011.4
20260904091016 17 180 1.6 4.8 0.00 0.08 0.08 89 1011.3
20260904090017 17 184 1.6 6.4 0.03 0.08 0.08 89 1011.4
20260904085020 17 194 3.2 6.4 0.03 0.08 0.08 89 1011.5
20260904084042 17 179 1.6 6.4 0.05 0.08 0.08 89 1011.5
20260904083019 17 182 0.0 6.4 0.05 0.08 0.08 88 1011.5
20260904082023 17 159 1.6 11.3 0.08 0.08 0.08 88 1011.5
20260904081047 17 149 3.2 11.3 0.05 0.05 0.05 87 1011.6
20260904080022 17 153 3.2 9.7 0.05 0.05 0.05 87 1011.5
20260904075043 17 139 4.8 12.9 0.05 0.05 0.05 85 1011.4
20260904074022 18 186 6.4 14.5 0.03 0.03 0.03 85 1011.5
20260904073021 18 166 6.4 11.3 0.03 0.03 0.03 84 1011.6
20260904072008 18 146 3.2 11.3 0.00 0.00 0.00 84 1011.6
20260904071012 18 199 4.8 12.9 0.00 0.00 0.00 85 1011.6
20260904070024 18 193 1.6 11.3 0.00 0.00 0.00 85 1011.5
20260904065020 18 153 1.6 6.4 0.00 0.00 0.00 85 1011.5
20260904064042 18 160 1.6 3.2 0.00 0.00 0.00 86 1011.6
20260904063020 18 339 0.0 0.0 0.00 0.00 0.00 86 1011.6
20260904062041 18 339 0.0 0.0 0.00 0.00 0.00 85 1011.5
20260904061044 18 339 0.0 0.0 0.00 0.00 0.00 84 1011.5
20260904060017 18 339 0.0 0.0 0.00 0.00 0.00 84 1011.6
20260904055019 18 339 0.0 0.0 0.00 0.00 0.00 82 1011.5
20260904054021 18 339 0.0 0.0 0.00 0.00 0.00 82 1011.6
20260904053017 18 339 0.0 0.0 0.00 0.00 0.00 80 1011.7
20260904052015 18 339 0.0 0.0 0.00 0.00 0.00 79 1011.8
20260904051013 18 339 0.0 0.0 0.00 0.00 0.00 77 1011.7
20260904050007 19 339 0.0 0.0 0.00 0.00 0.00 77 1011.8
20260904045011 19 8 0.0 1.6 0.00 0.00 0.00 76 1011.7
20260904044012 19 99 0.0 4.8 0.00 0.00 0.00 75 1011.7
20260904043030 19 73 1.6 6.4 0.00 0.00 0.00 75 1011.5
20260904042031 19 260 1.6 4.8 0.00 0.00 0.00 75 1011.6
20260904041016 19 47 0.0 3.2 0.00 0.00 0.00 74 1011.6
20260904040025 19 16 1.6 4.8 0.00 0.00 0.00 74 1011.7
20260904035047 19 317 1.6 4.8 0.00 0.00 0.00 74 1011.7
20260904034010 19 1 3.2 8.0 0.00 0.00 0.00 73 1011.6
20260904033046 20 331 3.2 11.3 0.00 0.00 0.00 72 1011.4
20260904032021 20 327 4.8 8.0 0.00 0.00 0.00 72 1011.4
20260904031044 20 309 4.8 8.0 0.00 0.00 0.00 72 1011.3
20260904030024 20 287 4.8 14.5 0.00 0.00 0.00 70 1011.1
20260904025027 20 280 4.8 6.4 0.00 0.00 0.00 72 1011.2
20260904024026 21 278 0.0 6.4 0.00 0.00 0.00 72 1011.4
20260904023026 21 255 3.2 9.7 0.00 0.00 0.00 72 1011.4
20260904022028 21 260 4.8 8.0 0.00 0.00 0.00 71 1011.4
20260904021009 21 249 1.6 8.0 0.00 0.00 0.00 71 1011.3
20260904020012 21 236 4.8 12.9 0.00 0.00 0.00 70 1011.4
20260904015028 21 270 0.0 9.7 0.00 0.00 0.00 69 1011.4
20260904014011 21 260 6.4 14.5 0.00 0.00 0.00 69 1011.4
20260904013010 21 238 8.0 17.7 0.00 0.00 0.00 68 1011.6
20260904012010 21 289 8.0 19.3 0.00 0.00 0.00 67 1011.6
20260904011016 21 265 8.0 14.5 0.00 0.00 0.00 67 1011.6
20260904010018 22 254 8.0 19.3 0.00 0.00 0.00 67 1011.7
20260904005018 22 248 6.4 17.7 0.00 0.00 0.00 66 1011.8
20260904004017 22 189 9.7 19.3 0.00 0.00 0.00 65 1011.9
20260904003018 22 251 8.0 19.3 0.00 0.00 0.00 65 1011.8
20260904002041 22 254 8.0 17.7 0.00 0.00 0.00 64 1011.6
20260904001043 22 241 8.0 19.3 0.00 0.00 0.00 64 1011.7
20260904000046 22 260 8.0 19.3 0.00 0.00 0.00 64 1011.7
20260903235024 23 256 6.4 16.1 0.00 0.00 0.00 64 1011.8
20260903234025 23 208 4.8 20.9 0.00 0.00 0.00 63 1011.8
20260903233028 23 254 8.0 19.3 0.00 0.00 0.00 63 1011.7
20260903232025 23 207 8.0 14.5 0.00 0.00 0.00 62 1011.8
20260903231026 23 265 11.3 19.3 0.00 0.00 0.00 62 1012.1
20260903230028 23 248 8.0 19.3 0.00 0.00 0.00 62 1012.1
20260903225010 23 236 8.0 25.7 0.00 0.00 0.00 61 1012.0
20260903224023 23 245 4.8 17.7 0.00 0.00 0.00 61 1012.1
20260903223025 23 199 11.3 17.7 0.00 0.00 0.00 60 1012.2
20260903222040 23 201 4.8 16.1 0.00 0.00 0.00 60 1012.4
20260903221023 23 203 6.4 17.7 0.00 0.00 0.00 61 1012.4
20260903220023 23 216 6.4 17.7 0.00 0.00 0.00 61 1012.8
20260903215027 23 235 4.8 17.7 0.00 0.00 0.00 60 1012.8
20260903214027 23 205 3.2 16.1 0.00 0.00 0.00 61 1012.8
20260903213009 23 249 6.4 19.3 0.00 0.00 0.00 61 1013.1
20260903212011 23 245 8.0 17.7 0.00 0.00 0.00 62 1013.1
20260903211010 23 224 8.0 14.5 0.00 0.00 0.00 62 1013.1
20260903210016 22 252 11.3 19.3 0.00 0.00 0.00 62 1013.2
20260903205017 22 198 11.3 20.9 0.00 0.00 0.00 62 1013.1
20260903204011 23 178 8.0 14.5 0.00 0.00 0.00 61 1013.2
20260903203015 23 324 6.4 17.7 0.00 0.00 0.00 62 1013.2
20260903202019 23 247 4.8 16.1 0.00 0.00 0.00 61 1013.3
20260903201036 23 237 6.4 16.1 0.00 0.00 0.00 60 1013.4
20260903200018 23 193 6.4 16.1 0.00 0.00 0.00 60 1013.4
20260903195017 23 178 4.8 12.9 0.00 0.00 0.00 62 1013.6
20260903194022 23 245 8.0 16.1 0.00 0.00 0.00 60 1013.8
20260903193039 23 162 6.4 17.7 0.00 0.00 0.00 60 1013.8
20260903192019 23 230 4.8 14.5 0.00 0.00 0.00 62 1013.9
20260903191018 23 234 4.8 14.5 0.00 0.00 0.00 62 1014.0
20260903190018 23 247 6.4 16.1 0.00 0.00 0.00 63 1014.3
20260903185020 23 174 4.8 14.5 0.00 0.00 0.00 62 1014.3
20260903184037 22 123 8.0 16.1 0.00 0.00 0.00 63 1014.2
20260903183020 22 172 11.3 17.7 0.00 0.00 0.00 63 1014.5
20260903182021 22 179 8.0 12.9 0.00 0.00 0.00 65 1014.5
20260903181040 22 209 6.4 14.5 0.00 0.00 0.00 65 1014.6
20260903180024 21 193 4.8 12.9 0.00 0.00 0.00 67 1014.7
20260903175025 21 228 6.4 17.7 0.00 0.00 0.00 67 1014.8
20260903174008 21 214 6.4 12.9 0.00 0.00 0.00 68 1014.8
20260903173022 20 140 3.2 14.5 0.00 0.00 0.00 71 1014.8
20260903172021 19 177 6.4 11.3 0.00 0.00 0.00 72 1014.9
20260903171008 19 176 6.4 12.9 0.00 0.00 0.00 74 1015.0
20260903170025 18 163 3.2 9.7 0.00 0.00 0.00 75 1015.0
20260903165027 18 174 4.8 16.1 0.00 0.00 0.00 75 1015.0
20260903164033 18 158 4.8 12.9 0.00 0.00 0.00 76 1015.0
20260903163029 18 162 6.4 12.9 0.00 0.00 0.00 76 1015.1
20260903162016 18 157 6.4 14.5 0.00 0.00 0.00 76 1015.2
20260903161040 17 174 4.8 12.9 0.00 0.00 0.00 77 1015.2
20260903160018 17 147 4.8 14.5 0.00 0.00 0.00 77 1015.1
20260903155022 17 161 3.2 14.5 0.00 0.00 0.00 77 1015.3
20260903154008 17 138 3.2 12.9 0.00 0.00 0.00 77 1015.4
20260903153031 17 146 3.2 11.3 0.00 0.00 0.00 77 1015.4
20260903152010 17 171 6.4 12.9 0.00 0.00 0.00 75 1015.3
20260903151029 16 150 8.0 12.9 0.00 0.00 0.00 79 1015.3
20260903150010 16 170 4.8 8.0 0.00 0.00 0.00 81 1015.3
20260903145036 16 135 4.8 9.7 0.00 0.00 0.00 81 1015.3
20260903144040 16 116 6.4 14.5 0.00 0.00 0.00 81 1015.3
20260903143039 15 117 4.8 9.7 0.00 0.00 0.00 82 1015.2
20260903142043 15 136 3.2 11.3 0.00 0.00 0.00 82 1015.2
20260903141020 15 132 4.8 11.3 0.00 0.00 0.00 82 1015.0
20260903140021 15 112 6.4 11.3 0.00 0.00 0.00 83 1014.9
20260903135024 15 135 3.2 11.3 0.00 0.00 0.00 82 1014.9
20260903134044 15 133 6.4 11.3 0.00 0.00 0.00 82 1014.9
20260903133009 15 118 4.8 9.7 0.00 0.00 0.00 82 1014.9
20260903132033 15 126 6.4 9.7 0.00 0.00 0.00 82 1015.0
20260903131014 15 123 4.8 11.3 0.00 0.00 0.00 82 1015.0
20260903130012 15 155 4.8 11.3 0.00 0.00 0.00 82 1015.1
20260903125017 15 150 3.2 14.5 0.00 0.00 0.00 81 1015.1
20260903124022 15 116 8.0 11.3 0.00 0.00 0.00 81 1015.1
20260903123022 16 132 3.2 14.5 0.00 0.00 0.00 81 1015.0
20260903122027 16 149 3.2 11.3 0.00 0.00 0.00 81 1015.0
20260903121008 16 101 4.8 12.9 0.00 0.00 0.00 81 1015.0
20260903120027 16 135 3.2 9.7 0.00 0.00 0.00 81 1015.1
20260903115013 16 136 6.4 12.9 0.00 0.00 0.00 81 1015.1
20260903114016 16 142 8.0 14.5 0.00 0.00 0.00 81 1015.3
20260903113021 16 173 6.4 16.1 0.00 0.00 0.00 81 1015.4
20260903112023 16 143 3.2 11.3 0.00 0.00 0.00 81 1015.5
20260903111007 16 133 4.8 12.9 0.00 0.00 0.00 81 1015.5
20260903110009 16 143 8.0 14.5 0.00 0.00 0.00 81 1015.4
20260903105013 16 153 8.0 16.1 0.00 0.00 0.00 81 1015.5
20260903104016 16 143 6.4 11.3 0.00 0.00 0.00 81 1015.5
20260903103020 16 128 6.4 14.5 0.00 0.00 0.00 81 1015.4